Stations météo

Publicité
St-Dizier, France (7169): Température de l'air & dewpoint: 11.06.2019 17:00:00 - 17.06.2019 17:00:00 (CEST)St-Dizier, France (7169): Température de l'air 5cm: 11.06.2019 17:00:00 - 17.06.2019 17:00:00 (CEST)St-Dizier, France (7169): Température de l'air -20cm & Température de l'air -100cm: 11.06.2019 17:00:00 - 17.06.2019 17:00:00 (CEST)St-Dizier, France (7169): Vitesse du vent & gusts: 11.06.2019 17:00:00 - 17.06.2019 17:00:00 (CEST)St-Dizier, France (7169): Direction du vent: 11.06.2019 17:00:00 - 17.06.2019 17:00:00 (CEST)St-Dizier, France (7169): reduced air pressure: 11.06.2019 17:00:00 - 17.06.2019 17:00:00 (CEST)St-Dizier, France (7169): visibility: 11.06.2019 17:00:00 - 17.06.2019 17:00:00 (CEST)St-Dizier, France (7169): Ensoleillement: 11.06.2019 17:00:00 - 17.06.2019 17:00:00 (CEST)St-Dizier, France (7169): Quantités de précipitations: 11.06.2019 17:00:00 - 17.06.2019 17:00:00 (CEST)
Date & Time tt [°C] td [°C] tt 5cm [°C] tt -20cm [°C] tt -100cm [°C] ff [km/h] ff [knt] fx [km/h] fx [knt] dd ppp [hPa] vv [km] sd [min] rr [mm]
17.06.2019 17:00:00 27,1 9,4 - - - 9 5 28 15 NE 1016,4 17 - -
17.06.2019 16:00:00 26,5 10,2 28,1 19,5 16,3 8 5 32 17 E 1017,0 18 54 0,0
17.06.2019 15:00:00 26,1 9,4 27,9 19,2 16,3 14 8 24 13 ENE 1017,5 8 53 0,0
17.06.2019 14:00:00 25,4 9,6 31,5 19,0 16,3 15 8 25 14 ESE 1017,8 10 60 0,0
17.06.2019 13:00:00 25,1 11,3 31,4 18,8 16,3 10 6 21 12 ESE 1018,3 15 60 0,0
17.06.2019 12:00:00 24,6 10,8 25,5 18,8 16,3 8 4 24 13 ENE 1018,9 20 52 0,0
17.06.2019 11:00:00 23,7 11,4 27,0 18,9 16,3 8 4 20 11 E 1019,1 20 60 0,0
17.06.2019 10:00:00 22,1 10,9 25,0 19,0 16,3 10 6 19 10 E 1019,4 13 60 0,0
17.06.2019 09:00:00 20,0 11,7 20,2 19,2 16,2 6 3 11 6 E 1020,0 25 60 0,0
17.06.2019 08:00:00 16,6 11,1 15,4 19,4 16,2 5 3 11 6 E 1020,1 33 60 0,0
17.06.2019 07:00:00 13,8 10,6 10,2 19,7 16,3 6 3 9 5 E 1020,3 39 53 0,0
17.06.2019 06:00:00 11,5 10,1 9,7 19,8 16,3 4 2 6 3 E 1021,0 34 0 0,0
17.06.2019 05:00:00 11,6 10,0 10,2 20,1 16,3 5 3 9 5 E 1021,1 34 0 0,0
17.06.2019 04:00:00 12,4 10,5 10,8 20,2 16,2 2 1 7 4 NE 1021,1 38 0 0,0
17.06.2019 03:00:00 12,5 10,9 11,0 20,4 16,2 3 2 8 4 E 1021,3 40 0 0,0
17.06.2019 02:00:00 13,1 11,3 11,7 20,5 16,2 5 3 10 6 E 1021,4 42 0 0,0
17.06.2019 01:00:00 13,8 11,1 12,3 20,5 16,2 4 2 6 3 E 1021,3 48 0 0,0
17.06.2019 00:00:00 14,6 11,6 13,1 20,6 16,2 5 3 6 3 E 1021,5 54 0 0,0
16.06.2019 23:00:00 16,2 12,0 14,6 20,5 16,2 0 0 6 3 N 1021,4 57 0 0,0
16.06.2019 22:00:00 19,1 10,9 17,3 20,3 16,2 5 3 6 3 N 1021,1 60 16 0,0
16.06.2019 21:00:00 22,2 10,3 20,7 20,0 16,2 5 3 10 5 NNW 1020,9 58 60 0,0
16.06.2019 20:00:00 22,5 10,0 22,9 19,7 16,2 6 4 15 8 W 1020,9 32 60 0,0
16.06.2019 19:00:00 22,6 10,4 26,2 19,4 16,2 6 4 17 9 W 1020,9 39 60 0,0
16.06.2019 18:00:00 23,0 10,4 25,1 19,0 16,2 8 5 22 12 W 1020,9 52 54 0,0
16.06.2019 17:00:00 22,6 10,1 25,6 18,6 16,2 9 5 20 11 NW 1021,3 26 44 0,0
16.06.2019 16:00:00 22,2 10,0 22,0 18,3 16,2 11 6 21 11 W 1021,8 16 54 0,0
16.06.2019 15:00:00 20,2 9,7 22,3 18,1 16,2 12 6 25 14 WSW 1022,1 36 44 0,0
16.06.2019 14:00:00 20,5 9,7 23,5 17,9 16,2 8 4 25 14 WSW 1022,0 20 50 0,0
16.06.2019 13:00:00 19,9 10,0 21,6 17,8 16,2 11 6 26 14 WSW 1022,5 8 50 0,0
16.06.2019 12:00:00 18,6 10,9 21,6 17,8 16,2 13 7 24 13 WSW 1022,7 15 53 0,0
16.06.2019 11:00:00 17,7 11,3 17,2 17,9 16,2 14 8 27 14 WSW 1022,6 19 28 0,0
16.06.2019 10:00:00 17,0 10,8 19,8 18,0 16,2 13 7 22 12 W 1022,6 14 55 0,0
16.06.2019 09:00:00 15,9 10,4 18,7 18,1 16,1 13 7 19 11 SW 1022,4 11 60 0,0
16.06.2019 08:00:00 14,7 10,7 13,8 18,3 16,1 6 4 12 6 SW 1022,4 33 60 0,2
16.06.2019 07:00:00 12,7 10,1 10,5 18,5 16,1 6 3 13 7 SSW 1022,1 36 53 0,0
16.06.2019 06:00:00 11,5 9,9 9,4 18,7 16,1 6 3 10 5 S 1021,7 34 0 0,0
16.06.2019 05:00:00 12,1 9,8 10,1 18,9 16,1 5 3 8 5 S 1021,3 44 0 0,0
16.06.2019 04:00:00 12,4 9,8 10,8 19,1 16,1 0 0 10 5 N 1020,9 40 0 0,0
16.06.2019 03:00:00 12,5 10,6 10,9 19,2 16,1 5 3 7 4 SSE 1020,8 45 0 0,0
16.06.2019 02:00:00 12,9 10,6 11,4 19,4 16,1 2 1 6 3 SE 1020,7 37 0 0,0
16.06.2019 01:00:00 14,4 11,0 12,7 19,5 16,1 3 2 10 6 SSW 1020,0 47 0 0,0
16.06.2019 00:00:00 15,4 11,6 13,5 19,5 16,1 8 4 12 6 SSW 1019,6 54 0 0,0
15.06.2019 23:00:00 16,7 11,0 14,0 19,6 16,1 8 4 10 6 SW 1018,9 60 0 0,0
15.06.2019 22:00:00 18,2 11,0 17,1 19,6 16,1 5 3 15 8 SSW 1018,4 60 0 0,0
15.06.2019 21:00:00 18,9 10,5 18,5 19,6 16,1 10 6 18 10 W 1018,0 60 21 0,0
15.06.2019 20:00:00 19,4 11,2 19,4 19,5 16,1 10 6 23 12 W 1017,8 60 0 0,0
15.06.2019 19:00:00 19,9 11,9 19,8 19,3 16,1 9 5 22 12 WSW 1017,1 57 0 0,0
15.06.2019 18:00:00 20,3 11,8 20,9 19,1 16,1 14 7 26 14 W 1017,0 44 0 0,0
15.06.2019 17:00:00 21,0 11,9 21,7 18,9 16,1 14 7 29 16 WSW 1017,2 38 0 0,0
15.06.2019 16:00:00 21,4 10,2 21,8 18,7 16,1 16 9 25 14 W 1016,9 34 10 0,0
15.06.2019 15:00:00 23,0 11,4 25,5 18,4 16,1 16 9 29 16 W 1016,5 7 56 0,0
15.06.2019 14:00:00 21,7 12,3 22,7 18,3 16,1 12 7 27 15 WSW 1016,7 14 52 0,0
15.06.2019 13:00:00 20,9 12,1 23,5 18,2 16,1 16 9 28 15 SW 1016,9 11 55 0,0
15.06.2019 12:00:00 20,0 13,0 21,3 18,2 16,0 14 8 24 13 SW 1016,7 9 42 0,0
15.06.2019 11:00:00 19,1 13,1 18,7 18,3 16,0 13 7 27 14 SW 1016,6 21 43 0,0
15.06.2019 10:00:00 17,7 13,8 16,9 18,4 16,0 14 8 28 15 SW 1016,2 14 38 0,0
15.06.2019 09:00:00 16,2 14,2 15,8 18,5 16,0 14 8 29 16 WSW 1015,7 48 3 0,0
15.06.2019 08:00:00 15,7 14,2 15,5 18,6 16,0 16 8 23 12 SW 1014,7 31 11 0,0
15.06.2019 07:00:00 15,2 14,1 14,7 18,7 16,0 14 7 24 13 SW 1014,0 34 0 0,0
15.06.2019 06:00:00 15,0 14,0 14,7 18,8 16,0 11 6 21 12 SSW 1013,6 10 0 0,4
15.06.2019 05:00:00 15,2 14,4 14,9 18,9 16,0 13 7 32 17 SSW 1013,1 5 0 1,4
15.06.2019 04:00:00 15,6 14,6 15,3 19,0 16,0 12 7 20 11 SW 1012,7 2,4 0 1,5
15.06.2019 03:00:00 16,0 15,2 15,7 19,1 16,0 6 3 16 8 SSW 1012,4 4,9 0 1,0
15.06.2019 02:00:00 16,1 15,3 15,6 19,2 16,0 4 2 19 10 SSW 1012,3 4,0 0 2,6
15.06.2019 01:00:00 16,3 15,3 15,9 19,3 16,0 3 2 9 5 SW 1011,5 4,3 0 1,0
15.06.2019 00:00:00 16,6 15,3 16,0 19,3 16,0 4 2 13 7 ESE 1011,2 9 0 0,4
14.06.2019 23:00:00 16,7 15,6 16,2 19,3 16,0 5 3 11 6 NNE 1011,6 8 0 0,4
14.06.2019 22:00:00 16,9 14,9 16,2 19,3 16,0 0 0 18 10 N 1012,6 23 0 0,8
14.06.2019 21:00:00 17,6 15,0 16,6 19,2 16,0 11 6 19 10 S 1012,9 19 0 0,4
14.06.2019 20:00:00 18,6 13,7 17,4 19,0 16,0 0 0 11 6 N 1011,6 58 0 0,0
14.06.2019 19:00:00 19,6 13,3 17,5 18,8 16,0 8 5 15 8 ESE 1011,4 19 0 0,0
14.06.2019 18:00:00 20,4 11,9 20,7 18,5 16,0 9 5 27 15 ESE 1011,1 60 0 0,0
14.06.2019 17:00:00 22,1 12,1 23,2 18,2 16,0 13 7 30 16 SSE 1012,4 43 0 0,0
14.06.2019 16:00:00 23,9 11,9 27,0 17,9 16,0 18 10 33 18 ESE 1012,6 27 39 0,0
14.06.2019 15:00:00 24,6 10,1 27,6 17,6 16,0 14 8 25 13 SSE 1012,9 19 12 0,0
14.06.2019 14:00:00 24,2 10,8 26,7 17,3 16,0 14 8 29 16 S 1013,4 22 23 0,0
14.06.2019 13:00:00 24,2 9,4 29,5 17,3 16,0 14 8 34 18 SE 1014,1 18 60 0,0
14.06.2019 12:00:00 22,7 9,5 25,8 17,2 16,0 9 5 22 12 E 1014,6 21 54 0,0
14.06.2019 11:00:00 21,1 9,3 20,5 17,3 16,0 10 5 21 11 ESE 1015,0 39 24 0,0
14.06.2019 10:00:00 19,5 9,7 19,7 17,4 16,0 14 8 22 12 E 1014,5 35 23 0,0
14.06.2019 09:00:00 17,3 11,1 15,4 17,5 16,0 2 1 8 4 NE 1015,3 40 57 0,0
14.06.2019 08:00:00 13,3 10,5 13,5 17,7 16,0 5 3 8 4 SSW 1015,6 51 26 0,0
14.06.2019 07:00:00 12,0 9,4 10,1 17,9 16,0 3 1 15 8 SE 1014,8 34 53 0,2
14.06.2019 06:00:00 10,8 8,9 9,5 18,1 16,0 10 5 16 8 W 1013,8 48 0 0,0
14.06.2019 05:00:00 10,9 8,5 9,3 18,2 16,0 0 0 6 3 N 1012,8 57 0 0,0
14.06.2019 04:00:00 11,1 8,5 9,9 18,4 16,0 5 3 12 6 E 1012,4 60 0 0,0
14.06.2019 03:00:00 11,2 8,8 9,6 18,5 16,0 7 4 11 6 E 1012,5 59 0 0,0
14.06.2019 02:00:00 11,6 9,2 10,0 18,6 16,0 4 2 6 3 E 1013,0 26 0 0,0
14.06.2019 01:00:00 12,6 10,3 11,1 18,6 16,0 5 3 8 4 ESE 1013,3 14 0 0,0
14.06.2019 00:00:00 14,2 11,0 12,5 18,6 16,0 0 0 8 5 N 1013,3 59 0 0,0
13.06.2019 23:00:00 15,5 11,1 13,8 18,5 16,0 5 3 15 8 NW 1013,0 60 0 0,0
13.06.2019 22:00:00 17,6 10,9 16,1 18,3 16,0 6 3 10 5 N 1012,5 60 0 0,0
13.06.2019 21:00:00 19,4 10,7 19,2 18,1 16,0 6 4 16 8 NNE 1012,0 60 23 0,0
13.06.2019 20:00:00 21,7 9,9 21,6 17,8 16,1 7 4 15 8 E 1011,8 44 31 0,0
13.06.2019 19:00:00 21,6 9,5 25,8 17,5 16,0 8 5 15 8 N 1012,1 46 60 0,0
13.06.2019 18:00:00 21,3 9,8 23,6 17,2 16,0 6 3 30 16 NNW 1012,5 59 55 0,0
13.06.2019 17:00:00 22,0 8,1 21,9 16,9 16,1 19 10 39 21 W 1012,9 43 32 0,0
13.06.2019 16:00:00 21,9 8,0 23,6 16,6 16,1 21 12 44 24 WSW 1013,2 35 29 0,0
13.06.2019 15:00:00 22,2 8,0 22,6 16,3 16,1 15 8 36 19 SW 1012,9 19 22 0,0
13.06.2019 14:00:00 20,7 7,3 21,9 16,1 16,1 20 11 38 21 SW 1013,2 15 45 0,0
13.06.2019 13:00:00 19,7 7,7 19,9 16,0 16,1 17 9 35 19 SW 1013,8 20 35 0,0
13.06.2019 12:00:00 19,0 7,7 20,3 16,0 16,1 21 11 34 18 SSW 1014,1 18 48 0,0
13.06.2019 11:00:00 18,0 8,3 21,0 16,0 16,1 19 11 31 17 S 1014,3 19 60 0,0
13.06.2019 10:00:00 16,0 8,0 18,0 16,1 16,1 14 8 24 13 S 1014,5 27 60 0,0
13.06.2019 09:00:00 14,6 8,3 16,0 16,3 16,1 13 7 26 14 S 1014,8 54 60 0,0
13.06.2019 08:00:00 13,1 8,0 11,9 16,4 16,1 12 7 22 12 S 1014,8 17 50 0,0
13.06.2019 07:00:00 11,3 7,6 9,5 16,6 16,1 14 8 24 13 S 1014,7 28 48 0,0
13.06.2019 06:00:00 10,4 7,3 9,3 16,8 16,1 10 6 18 10 S 1014,4 37 0 0,0
13.06.2019 05:00:00 10,7 7,8 9,4 16,9 16,1 10 6 17 9 S 1014,0 60 0 0,0
13.06.2019 04:00:00 10,8 7,5 9,6 17,1 16,1 10 5 16 9 S 1014,0 60 0 0,0
13.06.2019 03:00:00 11,2 7,1 9,1 17,2 16,1 8 5 13 7 S 1013,6 60 0 0,0
13.06.2019 02:00:00 11,4 6,9 9,5 17,3 16,1 6 4 20 11 S 1013,7 60 0 0,0
13.06.2019 01:00:00 12,4 7,1 10,4 17,4 16,1 12 6 19 10 S 1013,2 60 0 0,0
13.06.2019 00:00:00 13,9 7,0 12,6 17,5 16,1 12 7 30 16 SSW 1013,1 60 0 0,0
12.06.2019 23:00:00 14,8 6,6 13,1 17,5 16,1 13 7 30 16 SSW 1012,5 60 0 0,0
12.06.2019 22:00:00 16,2 6,3 14,7 17,5 16,1 18 10 35 19 SSW 1012,0 60 14 0,0
12.06.2019 21:00:00 17,4 7,7 16,7 17,4 16,1 10 5 18 10 SSW 1011,2 60 17 0,0
12.06.2019 20:00:00 17,3 8,2 16,1 17,3 16,2 9 5 21 11 SW 1010,8 31 3 0,0
12.06.2019 19:00:00 18,2 8,2 18,4 17,1 16,2 11 6 30 16 S 1010,4 43 10 0,0
12.06.2019 18:00:00 18,8 7,2 19,4 17,0 16,2 14 8 23 12 S 1010,2 55 20 0,0
12.06.2019 17:00:00 17,9 7,6 18,4 16,8 16,2 12 6 24 13 SW 1010,6 18 4 0,0
12.06.2019 16:00:00 17,1 9,3 16,6 16,6 16,2 19 10 42 23 W 1010,8 60 10 0,0
12.06.2019 15:00:00 18,0 6,2 19,9 16,4 16,2 13 7 30 16 SSW 1010,5 50 32 0,0
12.06.2019 14:00:00 18,4 8,1 19,2 16,3 16,2 20 11 32 17 SSW 1010,9 8 21 0,0
12.06.2019 13:00:00 17,3 9,5 17,7 16,2 16,2 11 6 27 15 S 1011,1 9 19 0,0
12.06.2019 12:00:00 16,7 9,1 17,0 16,2 16,2 16 9 26 14 SSW 1011,2 6 39 0,0
12.06.2019 11:00:00 15,0 9,1 15,6 16,2 16,2 13 7 24 13 SSW 1011,2 12 33 0,0
12.06.2019 10:00:00 13,3 10,1 13,4 16,3 16,2 18 10 27 14 SW 1011,4 15 1 0,0
12.06.2019 09:00:00 12,5 10,2 12,2 16,4 16,2 10 6 19 10 SSW 1011,0 33 0 0,0
12.06.2019 08:00:00 12,1 11,0 11,7 16,5 16,2 7 4 16 9 SSW 1010,9 15 0 0,4
12.06.2019 07:00:00 12,0 11,2 11,6 16,5 16,2 8 4 15 8 WSW 1010,2 5 0 1,6
12.06.2019 06:00:00 12,0 11,1 11,8 16,6 16,2 8 4 16 8 SW 1010,0 5 0 2,2
12.06.2019 05:00:00 12,3 11,0 11,9 16,7 16,3 7 4 11 6 SSW 1009,8 11 0 0,2
12.06.2019 04:00:00 12,6 11,2 11,7 16,8 16,3 3 2 4 2 SE 1009,7 21 0 0,0
12.06.2019 03:00:00 12,8 10,9 11,8 16,9 16,3 3 2 13 7 SSE 1010,2 37 0 0,0
12.06.2019 02:00:00 12,5 11,1 12,0 16,9 16,2 5 3 12 6 ESE 1010,7 21 0 0,0
12.06.2019 01:00:00 12,8 11,2 12,3 17,0 16,2 8 5 11 6 E 1011,1 29 0 0,0
12.06.2019 00:00:00 13,3 10,8 12,8 17,0 16,3 8 5 12 6 E 1011,3 39 0 0,0
11.06.2019 23:00:00 13,7 10,9 13,3 17,0 16,3 6 4 13 7 E 1011,4 58 0 0,0
11.06.2019 22:00:00 14,0 10,2 13,5 17,0 16,3 9 5 21 11 ESE 1011,6 59 13 0,0
11.06.2019 21:00:00 15,2 9,8 15,2 17,0 16,3 14 8 20 11 ESE 1011,3 33 60 0,0
11.06.2019 20:00:00 16,1 9,7 16,2 17,0 16,3 16 9 27 15 E 1011,4 16 39 0,0
11.06.2019 19:00:00 15,7 9,4 16,8 16,9 16,3 15 8 23 12 ESE 1011,5 34 4 0,0
11.06.2019 18:00:00 15,9 8,9 17,3 16,9 16,3 15 8 21 11 E 1011,7 35 8 0,0
11.06.2019 17:00:00 16,0 9,0 17,7 16,9 16,3 11 6 20 11 E 1012,0 46 7 0,0

tt = Température de l'air
td = dewpoint
tt 5cm = Température de l'air 5cm
tt -20cm = Température de l'air -20cm
tt -100cm = Température de l'air -100cm
ff = Vitesse du vent
fx = gusts
dd = Direction du vent
ppp = reduced air pressure
vv = visibility
sd = Ensoleillement
rr = Quantités de précipitations

stations d'obs. à proximité